Hourly Weather Alleppey

Today, 26 February, Friday

Time Temperature Precipitation Wind Pressure Humidity
00:00 +26°C° 0 mm 2 mps 757 mmHg 91%
01:00 +26°C° 0 mm 2 mps 757 mmHg 93%
02:00 +25°C° 0 mm 2 mps 756 mmHg 94%
03:00 +25°C° 0 mm 2 mps 756 mmHg 94%
04:00 +25°C° 0 mm 2 mps 756 mmHg 94%
05:00 +25°C° 0 mm 2 mps 756 mmHg 94%
06:00 +26°C° 0.1 mm 2 mps 757 mmHg 88%
07:00 +28°C° 0.1 mm 2 mps 758 mmHg 82%
08:00 +29°C° 0.1 mm 2 mps 758 mmHg 76%
09:00 +31°C° 0 mm 2 mps 758 mmHg 65%
10:00 +35°C° 0 mm 2 mps 758 mmHg 55%
11:00 +37°C° 0 mm 2 mps 758 mmHg 45%
12:00 +37°C° 0 mm 3 mps 757 mmHg 48%
13:00 +36°C° 0 mm 4 mps 756 mmHg 50%
14:00 +35°C° 0 mm 5 mps 755 mmHg 53%
15:00 +35°C° 0 mm 5 mps 755 mmHg 57%
16:00 +34°C° 0 mm 5 mps 755 mmHg 62%
17:00 +33°C° 0 mm 5 mps 755 mmHg 66%
18:00 +30°C° 0.4 mm 4 mps 755 mmHg 74%
19:00 +29°C° 0.4 mm 3 mps 756 mmHg 81%
20:00 +28°C° 0.4 mm 2 mps 757 mmHg 89%
21:00 +27°C° 0.5 mm 2 mps 757 mmHg 90%
22:00 +27°C° 0.5 mm 2 mps 757 mmHg 92%
23:00 +27°C° 0.5 mm 2 mps 757 mmHg 93%

Tomorrow, 27 February, Saturday

Time Temperature Precipitation Wind Pressure Humidity
00:00 +26°C° 0.2 mm 2 mps 757 mmHg 94%
01:00 +26°C° 0.2 mm 2 mps 756 mmHg 95%
02:00 +26°C° 0.2 mm 2 mps 755 mmHg 95%
03:00 +26°C° 0.2 mm 2 mps 755 mmHg 96%
04:00 +25°C° 0.2 mm 2 mps 755 mmHg 96%
05:00 +25°C° 0.2 mm 2 mps 755 mmHg 96%
06:00 +27°C° 0 mm 2 mps 756 mmHg 91%
07:00 +28°C° 0 mm 2 mps 757 mmHg 86%
08:00 +29°C° 0 mm 1 mps 757 mmHg 81%
09:00 +31°C° 0 mm 1 mps 757 mmHg 71%
10:00 +34°C° 0 mm 2 mps 757 mmHg 60%
11:00 +36°C° 0 mm 2 mps 757 mmHg 50%
12:00 +36°C° 0 mm 3 mps 756 mmHg 51%
13:00 +36°C° 0 mm 4 mps 755 mmHg 53%
14:00 +36°C° 0 mm 5 mps 754 mmHg 54%
15:00 +35°C° 0 mm 5 mps 754 mmHg 58%
16:00 +34°C° 0 mm 5 mps 754 mmHg 62%
17:00 +33°C° 0 mm 5 mps 754 mmHg 66%
18:00 +32°C° 0 mm 5 mps 754 mmHg 72%
19:00 +29°C° 0 mm 4 mps 755 mmHg 78%
20:00 +28°C° 0 mm 3 mps 756 mmHg 83%
21:00 +28°C° 0 mm 3 mps 756 mmHg 85%
22:00 +27°C° 0 mm 2 mps 756 mmHg 87%
23:00 +27°C° 0 mm 2 mps 756 mmHg 89%

Day after tomorrow, 28 February, Sunday

Time Temperature Precipitation Wind Pressure Humidity
00:00 +26°C° 0 mm 2 mps 756 mmHg 89%
01:00 +26°C° 0 mm 2 mps 755 mmHg 90%
02:00 +26°C° 0 mm 2 mps 755 mmHg 90%
03:00 +25°C° 0 mm 2 mps 755 mmHg 91%
04:00 +25°C° 0 mm 2 mps 755 mmHg 92%
05:00 +25°C° 0 mm 2 mps 755 mmHg 93%
06:00 +26°C° 0 mm 2 mps 756 mmHg 84%
07:00 +28°C° 0 mm 2 mps 756 mmHg 76%
08:00 +30°C° 0 mm 2 mps 757 mmHg 68%
09:00 +32°C° 0 mm 2 mps 757 mmHg 58%
10:00 +35°C° 0 mm 1 mps 757 mmHg 48%
11:00 +37°C° 0 mm 1 mps 757 mmHg 38%
12:00 +38°C° 0 mm 3 mps 756 mmHg 41%
13:00 +37°C° 0 mm 4 mps 755 mmHg 44%
14:00 +36°C° 0 mm 5 mps 754 mmHg 47%
15:00 +35°C° 0 mm 4 mps 754 mmHg 52%
16:00 +34°C° 0 mm 4 mps 754 mmHg 58%
17:00 +33°C° 0 mm 4 mps 754 mmHg 63%
18:00 +30°C° 0 mm 3 mps 755 mmHg 69%
19:00 +29°C° 0 mm 2 mps 755 mmHg 74%
20:00 +28°C° 0 mm 1 mps 756 mmHg 80%
21:00 +27°C° 0 mm 1 mps 757 mmHg 81%
22:00 +25°C° 0 mm 0 mps 757 mmHg 83%
23:00 +25°C° 0 mm 0 mps 757 mmHg 85%

1 March, Monday

Time Temperature Precipitation Wind Pressure Humidity
00:00 +26°C° 0 mm 1 mps 757 mmHg 87%
01:00 +26°C° 0 mm 1 mps 756 mmHg 89%
02:00 +25°C° 0 mm 2 mps 756 mmHg 90%
03:00 +25°C° 0 mm 2 mps 756 mmHg 91%
04:00 +25°C° 0 mm 2 mps 756 mmHg 92%
05:00 +25°C° 0 mm 2 mps 756 mmHg 93%
06:00 +26°C° 0 mm 2 mps 757 mmHg 85%
07:00 +28°C° 0 mm 2 mps 757 mmHg 76%
08:00 +29°C° 0 mm 1 mps 758 mmHg 68%
09:00 +32°C° 0 mm 1 mps 758 mmHg 57%
10:00 +36°C° 0 mm 2 mps 758 mmHg 47%
11:00 +38°C° 0 mm 2 mps 758 mmHg 37%
12:00 +37°C° 0 mm 3 mps 758 mmHg 42%
13:00 +36°C° 0 mm 4 mps 757 mmHg 47%
14:00 +35°C° 0 mm 5 mps 756 mmHg 52%
15:00 +34°C° 0 mm 5 mps 756 mmHg 56%
16:00 +33°C° 0 mm 4 mps 755 mmHg 61%
17:00 +32°C° 0 mm 4 mps 755 mmHg 65%
18:00 +30°C° 0 mm 3 mps 756 mmHg 70%
19:00 +29°C° 0 mm 2 mps 757 mmHg 74%
20:00 +27°C° 0 mm 1 mps 757 mmHg 79%
21:00 +27°C° 0 mm 1 mps 758 mmHg 81%
22:00 +26°C° 0 mm 1 mps 758 mmHg 82%
23:00 +26°C° 0 mm 1 mps 758 mmHg 84%

2 March, Tuesday

Time Temperature Precipitation Wind Pressure Humidity
00:00 +26°C° 0 mm 1 mps 758 mmHg 85%
01:00 +25°C° 0 mm 1 mps 757 mmHg 87%
02:00 +25°C° 0 mm 2 mps 757 mmHg 88%
03:00 +25°C° 0 mm 2 mps 757 mmHg 89%
04:00 +25°C° 0 mm 2 mps 757 mmHg 91%
05:00 +24°C° 0 mm 2 mps 757 mmHg 92%
06:00 +26°C° 0 mm 2 mps 758 mmHg 84%
07:00 +27°C° 0 mm 2 mps 758 mmHg 77%
08:00 +29°C° 0 mm 2 mps 759 mmHg 69%
09:00 +32°C° 0 mm 2 mps 759 mmHg 58%
10:00 +36°C° 0 mm 2 mps 759 mmHg 47%
11:00 +37°C° 0 mm 1 mps 759 mmHg 36%
12:00 +37°C° 0 mm 3 mps 758 mmHg 40%
13:00 +37°C° 0 mm 4 mps 757 mmHg 44%
14:00 +36°C° 0 mm 5 mps 756 mmHg 48%
15:00 +34°C° 0 mm 5 mps 756 mmHg 54%
16:00 +33°C° 0 mm 4 mps 755 mmHg 60%
17:00 +32°C° 0 mm 4 mps 755 mmHg 67%
18:00 +30°C° 0 mm 3 mps 756 mmHg 72%
19:00 +29°C° 0 mm 2 mps 757 mmHg 77%
20:00 +27°C° 0 mm 1 mps 757 mmHg 82%
21:00 +27°C° 0 mm 1 mps 758 mmHg 84%
22:00 +26°C° 0 mm 1 mps 758 mmHg 86%
23:00 +26°C° 0 mm 1 mps 758 mmHg 88%

3 March, Wednesday

Time Temperature Precipitation Wind Pressure Humidity
00:00 +26°C° 0 mm 1 mps 757 mmHg 89%
01:00 +25°C° 0 mm 2 mps 757 mmHg 90%
02:00 +25°C° 0 mm 2 mps 756 mmHg 91%
03:00 +25°C° 0.1 mm 2 mps 756 mmHg 92%
04:00 +25°C° 0.1 mm 2 mps 756 mmHg 92%
05:00 +25°C° 0.1 mm 2 mps 756 mmHg 93%
06:00 +26°C° 0.1 mm 2 mps 757 mmHg 86%
07:00 +28°C° 0.1 mm 2 mps 757 mmHg 78%
08:00 +29°C° 0.1 mm 2 mps 758 mmHg 71%
09:00 +31°C° 0 mm 2 mps 758 mmHg 61%
10:00 +35°C° 0 mm 2 mps 758 mmHg 51%
11:00 +36°C° 0 mm 1 mps 758 mmHg 41%
12:00 +37°C° 0 mm 2 mps 757 mmHg 43%
13:00 +36°C° 0 mm 4 mps 756 mmHg 45%
14:00 +36°C° 0 mm 5 mps 755 mmHg 47%
15:00 +35°C° 0 mm 4 mps 755 mmHg 53%
16:00 +33°C° 0 mm 4 mps 755 mmHg 58%
17:00 +32°C° 0 mm 4 mps 755 mmHg 64%
18:00 +30°C° 0 mm 3 mps 756 mmHg 70%
19:00 +29°C° 0 mm 2 mps 757 mmHg 76%
20:00 +27°C° 0 mm 1 mps 757 mmHg 81%
21:00 +27°C° 0 mm 1 mps 757 mmHg 84%
22:00 +26°C° 0 mm 1 mps 758 mmHg 86%
23:00 +26°C° 0 mm 1 mps 758 mmHg 89%
Show more